When you browse on this site, cookies collect data to enhance your experience and personalize the content and advertising you see.
Visit our Privacy Policy to learn more. By continuing to use the site, you agree to this use of cookies and data.
  • In Schweiz
  • Länderverzeichnis
  • Für 7 Tage
  • Wassertemperatur
  • Satellitenkarten
  • Wetterkarte
  • Widgets
  • user-avatar
    Anmelden

    Stündliche Wetter Annaba

    Heute, 22 März, Freitag

    Zeit Temperatur Niederschläge Wind Luftdruck Luftfeuchtigkeit
    00:00 +12°C° 0.6 mm 5 m/S 761 mmHg 94%
    01:00 +11°C° 0 mm 4 m/S 761 mmHg 94%
    02:00 +11°C° 0.8 mm 3 m/S 761 mmHg 94%
    03:00 +11°C° 0.8 mm 3 m/S 761 mmHg 94%
    04:00 +11°C° 0.8 mm 3 m/S 761 mmHg 94%
    05:00 +10°C° 0.1 mm 3 m/S 761 mmHg 93%
    06:00 +10°C° 0.1 mm 2 m/S 762 mmHg 93%
    07:00 +10°C° 0 mm 2 m/S 762 mmHg 93%
    08:00 +12°C° 0 mm 2 m/S 762 mmHg 88%
    09:00 +13°C° 0 mm 3 m/S 762 mmHg 82%
    10:00 +14°C° 0 mm 3 m/S 762 mmHg 76%
    11:00 +16°C° 0 mm 3 m/S 762 mmHg 72%
    12:00 +17°C° 0 mm 3 m/S 762 mmHg 67%
    13:00 +18°C° 0 mm 4 m/S 763 mmHg 63%
    14:00 +17°C° 0 mm 4 m/S 762 mmHg 66%
    15:00 +16°C° 0 mm 5 m/S 762 mmHg 70%
    16:00 +15°C° 0 mm 5 m/S 762 mmHg 73%
    17:00 +14°C° 0.3 mm 5 m/S 762 mmHg 79%
    18:00 +13°C° 0.3 mm 4 m/S 763 mmHg 86%
    19:00 +11°C° 0.3 mm 3 m/S 763 mmHg 92%
    20:00 +11°C° 1.2 mm 3 m/S 763 mmHg 93%
    21:00 +12°C° 1.2 mm 2 m/S 764 mmHg 94%
    22:00 +12°C° 1.2 mm 1 m/S 764 mmHg 95%
    23:00 +12°C° 1.8 mm 2 m/S 764 mmHg 95%

    Morgen, 23 März, Samstag

    Zeit Temperatur Niederschläge Wind Luftdruck Luftfeuchtigkeit
    00:00 +11°C° 1.8 mm 3 m/S 764 mmHg 95%
    01:00 +11°C° 1.8 mm 4 m/S 764 mmHg 95%
    02:00 +11°C° 1.2 mm 4 m/S 764 mmHg 95%
    03:00 +11°C° 1.2 mm 4 m/S 763 mmHg 95%
    04:00 +12°C° 1.2 mm 5 m/S 763 mmHg 95%
    05:00 +12°C° 1.3 mm 5 m/S 763 mmHg 95%
    06:00 +12°C° 1.3 mm 4 m/S 764 mmHg 95%
    07:00 +12°C° 1.3 mm 4 m/S 764 mmHg 95%
    08:00 +12°C° 0.6 mm 4 m/S 764 mmHg 92%
    09:00 +13°C° 0.6 mm 4 m/S 765 mmHg 90%
    10:00 +14°C° 0.6 mm 3 m/S 765 mmHg 88%
    11:00 +16°C° 0.2 mm 3 m/S 765 mmHg 84%
    12:00 +16°C° 0.2 mm 3 m/S 765 mmHg 81%
    13:00 +17°C° 0.2 mm 4 m/S 765 mmHg 78%
    14:00 +17°C° 0.1 mm 3 m/S 765 mmHg 77%
    15:00 +17°C° 0.1 mm 3 m/S 765 mmHg 77%
    16:00 +17°C° 0.1 mm 3 m/S 765 mmHg 76%
    17:00 +16°C° 0.1 mm 2 m/S 765 mmHg 81%
    18:00 +15°C° 0.1 mm 2 m/S 765 mmHg 85%
    19:00 +13°C° 0.1 mm 1 m/S 765 mmHg 90%
    20:00 +13°C° 0 mm 1 m/S 766 mmHg 91%
    21:00 +13°C° 0 mm 1 m/S 766 mmHg 92%
    22:00 +12°C° 0 mm 1 m/S 767 mmHg 93%
    23:00 +12°C° 0 mm 1 m/S 767 mmHg 93%

    übermorgen, 24 März, Sonntag

    Zeit Temperatur Niederschläge Wind Luftdruck Luftfeuchtigkeit
    00:00 +12°C° 0 mm 1 m/S 767 mmHg 93%
    01:00 +10°C° 0 mm 2 m/S 767 mmHg 94%
    02:00 +10°C° 0 mm 2 m/S 767 mmHg 93%
    03:00 +10°C° 0 mm 2 m/S 766 mmHg 93%
    04:00 +10°C° 0 mm 2 m/S 766 mmHg 92%
    05:00 +9°C° 0 mm 2 m/S 767 mmHg 92%
    06:00 +9°C° 0 mm 2 m/S 767 mmHg 91%
    07:00 +9°C° 0 mm 2 m/S 767 mmHg 90%
    08:00 +13°C° 0 mm 1 m/S 767 mmHg 82%
    09:00 +15°C° 0 mm 1 m/S 767 mmHg 75%
    10:00 +18°C° 0 mm 1 m/S 767 mmHg 68%
    11:00 +19°C° 0 mm 1 m/S 767 mmHg 63%
    12:00 +20°C° 0 mm 1 m/S 767 mmHg 58%
    13:00 +20°C° 0 mm 2 m/S 766 mmHg 53%
    14:00 +20°C° 0 mm 2 m/S 766 mmHg 56%
    15:00 +20°C° 0 mm 2 m/S 765 mmHg 59%
    16:00 +20°C° 0 mm 3 m/S 765 mmHg 61%
    17:00 +18°C° 0 mm 3 m/S 765 mmHg 69%
    18:00 +16°C° 0 mm 2 m/S 765 mmHg 76%
    19:00 +14°C° 0 mm 2 m/S 765 mmHg 84%
    20:00 +14°C° 0 mm 2 m/S 766 mmHg 85%
    21:00 +13°C° 0 mm 2 m/S 766 mmHg 86%
    22:00 +13°C° 0 mm 1 m/S 766 mmHg 87%
    23:00 +12°C° 0 mm 1 m/S 766 mmHg 87%

    25 März, Montag

    Zeit Temperatur Niederschläge Wind Luftdruck Luftfeuchtigkeit
    00:00 +12°C° 0 mm 1 m/S 766 mmHg 87%
    01:00 +12°C° 0 mm 1 m/S 766 mmHg 86%
    02:00 +12°C° 0 mm 1 m/S 766 mmHg 85%
    03:00 +12°C° 0 mm 1 m/S 765 mmHg 83%
    04:00 +11°C° 0 mm 1 m/S 765 mmHg 82%
    05:00 +11°C° 0 mm 1 m/S 765 mmHg 80%
    06:00 +11°C° 0 mm 1 m/S 765 mmHg 79%
    07:00 +12°C° 0 mm 1 m/S 765 mmHg 77%
    08:00 +14°C° 0 mm 1 m/S 765 mmHg 71%
    09:00 +16°C° 0 mm 0 m/S 765 mmHg 65%
    10:00 +18°C° 0 mm 0 m/S 765 mmHg 58%
    11:00 +21°C° 0 mm 1 m/S 765 mmHg 56%
    12:00 +22°C° 0 mm 1 m/S 764 mmHg 54%
    13:00 +23°C° 0 mm 2 m/S 764 mmHg 52%
    14:00 +21°C° 0 mm 2 m/S 764 mmHg 55%
    15:00 +21°C° 0 mm 2 m/S 763 mmHg 58%
    16:00 +21°C° 0 mm 3 m/S 763 mmHg 61%
    17:00 +19°C° 0 mm 2 m/S 763 mmHg 68%
    18:00 +17°C° 0 mm 2 m/S 763 mmHg 75%
    19:00 +15°C° 0 mm 1 m/S 763 mmHg 82%
    20:00 +14°C° 0 mm 1 m/S 763 mmHg 84%
    21:00 +14°C° 0 mm 1 m/S 764 mmHg 85%
    22:00 +12°C° 0 mm 0 m/S 764 mmHg 86%
    23:00 +13°C° 0 mm 1 m/S 764 mmHg 86%

    26 März, Dienstag

    Zeit Temperatur Niederschläge Wind Luftdruck Luftfeuchtigkeit
    00:00 +13°C° 0 mm 1 m/S 764 mmHg 86%
    01:00 +12°C° 0 mm 1 m/S 764 mmHg 87%
    02:00 +12°C° 0 mm 1 m/S 763 mmHg 86%
    03:00 +12°C° 0 mm 1 m/S 763 mmHg 86%
    04:00 +12°C° 0 mm 1 m/S 763 mmHg 86%
    05:00 +12°C° 0 mm 1 m/S 763 mmHg 85%
    06:00 +12°C° 0 mm 1 m/S 763 mmHg 84%
    07:00 +12°C° 0 mm 1 m/S 763 mmHg 83%
    08:00 +14°C° 0 mm 1 m/S 763 mmHg 77%
    09:00 +16°C° 0 mm 1 m/S 764 mmHg 71%
    10:00 +19°C° 0 mm 1 m/S 764 mmHg 65%
    11:00 +20°C° 0 mm 1 m/S 764 mmHg 60%
    12:00 +20°C° 0 mm 2 m/S 764 mmHg 56%
    13:00 +20°C° 0 mm 2 m/S 763 mmHg 51%
    14:00 +20°C° 0 mm 2 m/S 763 mmHg 52%
    15:00 +20°C° 0 mm 2 m/S 763 mmHg 53%
    16:00 +20°C° 0 mm 3 m/S 763 mmHg 54%
    17:00 +18°C° 0 mm 3 m/S 764 mmHg 61%
    18:00 +16°C° 0 mm 3 m/S 764 mmHg 69%
    19:00 +14°C° 0 mm 2 m/S 765 mmHg 77%
    20:00 +13°C° 0 mm 3 m/S 766 mmHg 80%
    21:00 +12°C° 0 mm 4 m/S 766 mmHg 84%
    22:00 +12°C° 0 mm 4 m/S 767 mmHg 87%
    23:00 +11°C° 0 mm 4 m/S 767 mmHg 88%

    27 März, Mittwoch

    Zeit Temperatur Niederschläge Wind Luftdruck Luftfeuchtigkeit
    00:00 +11°C° 0 mm 4 m/S 767 mmHg 89%
    01:00 +10°C° 0 mm 4 m/S 767 mmHg 89%
    02:00 +10°C° 0 mm 4 m/S 767 mmHg 89%
    03:00 +10°C° 0 mm 4 m/S 768 mmHg 88%
    04:00 +8°C° 0 mm 4 m/S 768 mmHg 87%
    05:00 +8°C° 0 mm 4 m/S 768 mmHg 87%
    06:00 +8°C° 0 mm 4 m/S 768 mmHg 86%
    07:00 +8°C° 0 mm 4 m/S 768 mmHg 85%
    08:00 +11°C° 0 mm 4 m/S 769 mmHg 76%
    09:00 +13°C° 0 mm 4 m/S 769 mmHg 67%
    10:00 +14°C° 0 mm 4 m/S 769 mmHg 58%
    11:00 +15°C° 0 mm 5 m/S 769 mmHg 56%
    12:00 +16°C° 0 mm 5 m/S 768 mmHg 54%
    13:00 +17°C° 0 mm 5 m/S 768 mmHg 52%
    14:00 +16°C° 0 mm 6 m/S 768 mmHg 55%
    15:00 +16°C° 0 mm 6 m/S 767 mmHg 58%
    16:00 +15°C° 0 mm 7 m/S 767 mmHg 62%
    17:00 +14°C° 0 mm 6 m/S 767 mmHg 65%
    18:00 +12°C° 0 mm 5 m/S 768 mmHg 69%
    19:00 +10°C° 0 mm 5 m/S 768 mmHg 73%
    20:00 +10°C° 0 mm 4 m/S 768 mmHg 75%
    21:00 +10°C° 0 mm 4 m/S 769 mmHg 77%
    22:00 +8°C° 0 mm 4 m/S 769 mmHg 78%
    23:00 +9°C° 0 mm 3 m/S 769 mmHg 80%
    Mehr zeigen